This is the latest recevied weather packets stored in our database for station/object N8WJW. If no packets are shown the sender has not sent any weather packets the latest 10 day(s).
| Time | Temp. | Humidity | Pressure | Rain* | Wind** | Luminosity | Snow |
|---|---|---|---|---|---|---|---|
| 1778184744 | 13.89° C | 56% | 1012.5 hPa | 0 mm | - | 640 W/m² | - |
| 1778184435 | 12.78° C | 53% | 1012.6 hPa | 0 mm | - | 675 W/m² | - |
| 1778184131 | 13.33° C | 52% | 1012.5 hPa | 0 mm | - | 153 W/m² | - |
| 1778183827 | 12.78° C | 52% | 1012.5 hPa | 0 mm | - | 678 W/m² | - |
| 1778183524 | 11.67° C | 57% | 1012.9 hPa | 0 mm | - | 180 W/m² | - |
| 1778183221 | 11.67° C | 52% | 1012.8 hPa | 0 mm | - | 167 W/m² | - |
| 1778182917 | 13.33° C | 48% | 1012.8 hPa | 0 mm | - | 206 W/m² | - |
| 1778182614 | 13.33° C | 49% | 1012.9 hPa | 0 mm | - | 759 W/m² | - |
| 1778182311 | 13.33° C | 49% | 1013 hPa | 0 mm | - | 768 W/m² | - |
| 1778182007 | 13.33° C | 51% | 1012.9 hPa | 0 mm | - | 706 W/m² | - |
| 1778181704 | 13.33° C | 52% | 1013 hPa | 0 mm | - | 742 W/m² | - |
| 1778181400 | 13.89° C | 46% | 1013.2 hPa | 0 mm | - | 729 W/m² | - |
| 1778181097 | 13.33° C | 47% | 1012.9 hPa | 0 mm | - | 748 W/m² | - |
| 1778180794 | 13.33° C | 51% | 1013.1 hPa | 0 mm | - | 756 W/m² | - |
| 1778180493 | 13.89° C | 44% | 1013.1 hPa | 0 mm | - | 772 W/m² | - |
| 1778180191 | 13.89° C | 52% | 1013.1 hPa | 0 mm | - | 783 W/m² | - |
| 1778179887 | 13.89° C | 46% | 1013.1 hPa | 0 mm | - | 795 W/m² | - |
| 1778179585 | 13.89° C | 51% | 1013 hPa | 0 mm | - | 798 W/m² | - |
| 1778179283 | 13.89° C | 49% | 1013.1 hPa | 0 mm | - | 808 W/m² | - |
| 1778178979 | 13.89° C | 52% | 1013 hPa | 0 mm | - | 810 W/m² | - |
| 1778178676 | 13.33° C | 44% | 1013.2 hPa | 0 mm | - | 820 W/m² | - |
| 1778178372 | 13.89° C | 50% | 1013.2 hPa | 0 mm | - | 835 W/m² | - |
| 1778178068 | 13.33° C | 48% | 1013.2 hPa | 0 mm | - | 829 W/m² | - |
| 1778177765 | 13.89° C | 56% | 1013.2 hPa | 0 mm | - | 826 W/m² | - |
| 1778177461 | 13.89° C | 46% | 1013 hPa | 0 mm | - | 664 W/m² | - |
* Rain latest hour (hover to see other rain measurements)
** Current wind speed in m/s (hover to see current wind gust speed)